STARLINK-36324, 68091

Orbit data source: Space-Track

STARLINK-36324, 68091 is a payload satellite owned by SpaceX/Seattle (US) in LEO that was launched on Wed, 04 Mar 2026 UTC via an FALCON 9 launch vehicle from the Air Force Eastern Test Range (AFETR). Payload-class satellites include a variety of spacecraft equipped with specific instruments for various scientific and technological missions. These include communications satellites like Starlink; space stations such as the ISS; scientific satellites like the Hubble; Earth observation satellites from companies like Planet Labs, Umbra, and HawkEye 360; GPS; miniature CubeSats for education and research; and military/defense satellites.

Loading next visibility...
Identifier
68091, 2026-042Y
Orbit
LEO
Country
Flag of USUS
Related business
Manufacturer
SpaceX/Seattle
Mission
Operational Commercial Communications
Bus & Motor
STARLINK V2MO, Unknown motor
Mass
575 kg wet, ~530 kg dry
Launch date (UTC)
2026-03-04 (2 months ago)
Launch vehicle
FALCON 9
Launch site
Air Force Eastern Test Range (AFETR)
Object type
Payload
Rocket body
Debris
Shape & HBR
Box + 2 Pan, 17.7 m
Radar Cross Section
36.964 m²

Expand to show TLE details & history
Last TLE update: 10 hours ago

TLE from 10 hours ago
0 STARLINK-36324
1 68091U 26042Y   26120.91668981 -.01826426  00000-0 -51227-1 0  9996
2 68091  53.1598 295.7937 0001019  68.6838  18.4766 15.39330309  5844
Epoch: 2026-04-30T22:00Z
TLE epoch observation values (Epoch: 2026-04-30T22:00:01.999Z)
Latitude
53.21895°
Longitude
-167.79944°
Altitude
453.978 km
Speed
7.647 km/s
True Right ascension
01h 24m 15s
True Declination
53° 02' 47"
Sunlit
Object was in daylight at epoch
Visualization orbit readout
Latitude
Unknown
Longitude
Unknown
Altitude
Unknown
Speed
Unknown
Apparent Right ascension
Unknown
Apparent Declination
Unknown
Sunlit
N/A
Visualization observer readout
Local Sidereal Time
16:05:18
Azimuth
Unknown
Elevation
Unknown
Doppler factor
Unknown
Orbital elements
Apogee altitude
449.042 km
Perigee altitude
447.65 km
Semi-major axis
6,826.483 km
Eccentricity
0.0001
Inclination
53.1598°
RAAN
295.7937°
Arg. of periapsis
68.6838°
True anomaly
18.4803°
Mean anomaly
18.4766°
Eccentric anomaly
18.47845°
Mean motion
3.84811 °/min
Orbital period
93.55 mins
BSTAR
-0.051227
Loading maneuver chart data...
Computing Atmospheric mass density...
Loading historical data...
Loading historical data...
Loading historical data...
Loading historical data...
Loading historical data...
Loading historical data...
Loading historical data...

Documentation

Showing up to 5 results
|